Location: Pittsburgh
(40.4410°N, 79.9960°W)
Time: 00:12:45
(UTC-04:00)

BlueWalker 3 - Pass Details

Date: 13 March 2026
Orbit: 449 x 457 km, 53.2° (Epoch: 17 April)

Event Time Altitude Azimuth Distance (km) Brightness Sun altitude
Exits shadow 04:00:26 - 45° (NE) 2,185 6.0 -39.3°
Enters shadow 05:00:52 -61° 272° (W) 11,717 8.9 -29.4°
Maximum altitude 05:35:23 16° 18° (NNE) 1,288 4.4 -23.3°
Sets 05:40:27 0° 81° (E) 2,467 6.9 -22.4°
